{"data":{"norad_id":49765,"intl_designator":"2021-115AT","name":"STARLINK-3227","alt_names":[],"object_type":"PAYLOAD","status":"ACTIVE","operator":null,"country":"US","launch_date":"2021-12-02","launch_site_code":"AFETR","launch_vehicle":null,"mission":null,"orbit_class":"UNKNOWN","rcs_meters":null,"size_class":null,"mass_kg":null,"dimensions":null,"purposes":["comms"],"wikipedia_slug":null,"has_3d_model":false,"image_url":null,"decayed_at":null,"tle_current":{"epoch":"2026-05-24T10:03:08.390304Z","epoch_age_seconds":121368,"freshness":"FRESH","line1":"1 49765U 21115AT  26144.41884711  .00000382  00000+0  42072-4 0  9993","line2":"2 49765  53.2134 159.1715 0001170  72.0269 288.0851 15.08836171247112","mean_motion":15.08836171,"eccentricity":0.000117,"inclination_deg":53.2134,"raan_deg":159.1715,"arg_perigee_deg":72.0269,"mean_anomaly_deg":288.0851,"bstar":4.2072e-5,"rev_number":24711,"period_min":95.437796871321,"perigee_km":538.94569933519,"apogee_km":540.56448608489,"semimajor_km":6917.89209271,"source":"CELESTRAK","updated_at":"2026-05-25T13:38:16.840347Z"}}}